Location: Jackson Park
(37.2862°N, 79.9123°W)
Time: 11:00:24
(UTC+00:00)

S-56A Canister/Altair - Pass Details

Date: 19 May 2026
Orbit: 632 x 2484 km, 38.9° (Epoch: 9 June)

Event Time Altitude Azimuth Distance (km) Brightness Sun altitude
Rises 02:06:17 0° 267° (W) 3,127 11.3 -17.6°
Reaches altitude 10° 02:08:47 10° 269° (W) 2,096 10.4 -17.9°
Maximum altitude 02:13:23 74° 355° (N) 657 7.2 -18.6°
Enters shadow 02:16:16 22° 78° (ENE) 1,415 8.6 -19.0°
Drops below altitude 10° 02:17:55 10° 81° (E) 2,073 - -19.2°
Sets 02:20:23 0° 83° (E) 3,089 - -19.5°
